Wind_Speed
15 16 14 7 12 17 22 25 27 28 28 30 26 25 18 18 19 16 16 20 21 18 19 20 18 15 13 11 11 5 4 1 8 13 13 14 10 8 12 15 18 19 22 25 30 33 32 30 26
10 8 5 1 18 23 23 25 23 19 20 23 20 18 21 21 17 16 19 16 16 16 16 15 10 7 7 9 5 1 3 12 14 15 17 17 15 13 12 12 21 24 21 24 24 26 30 30 29
4 6 3 20 18 19 22 16 14 17 16 17 17 19 17 18 19 19 17 16 17 16 12 11 10 13 6 6 6 9 8 17 13 14 11 15 16 17 22 18 24 29 23 27 31 30 31 31 31
4 4 4 6 15 14 16 14 14 15 17 14 12 14 16 20 20 21 20 14 13 19 14 15 20 10 13 11 9 11 15 16 15 14 11 10 17 16 18 20 20 21 19 22 24 26 32 34 37
13 1 4 4 13 9 11 15 16 13 14 13 15 11 10 11 12 13 14 12 14 19 18 21 16 13 11 10 13 11 19 17 14 14 15 16 15 16 19 18 16 15 14 18 22 27 31 35 39
29 14 17 18 16 13 13 12 11 14 11 7 6 6 2 4 5 9 13 15 17 20 21 22 16 13 10 16 14 18 21 15 14 17 16 13 14 15 21 21 19 23 23 18 19 21 27 32 32
8 9 12 20 19 18 16 13 5 5 3 2 2 2 4 4 11 17 17 19 20 23 22 21 15 13 14 17 19 17 13 14 13 20 16 17 19 17 19 21 19 22 22 18 18 21 24 29 31
11 14 13 14 13 11 12 7 6 3 3 2 4 6 9 13 21 21 24 24 25 21 17 15 12 14 16 19 19 16 18 14 14 21 15 20 18 17 18 24 27 30 21 19 20 20 24 28 29
6 16 11 9 2 3 4 4 7 4 3 9 5 12 18 26 33 34 27 24 27 24 20 17 18 20 21 19 15 18 15 16 18 19 19 16 14 16 16 15 17 21 26 20 17 16 16 25 21
14 9 5 2 3 4 1 6 5 5 7 11 11 17 24 38 38 31 22 25 22 21 17 14 17 19 20 13 18 15 17 16 18 18 12 7 10 10 9 11 12 15 20 19 23 29 31 25 23
24 21 16 13 9 6 5 8 7 4 9 12 18 20 25 33 32 26 22 23 28 21 18 13 20 18 17 20 17 16 19 16 17 17 12 14 10 3 6 3 6 9 10 17 18 22 25 25 25
34 28 18 12 10 6 6 9 8 6 8 12 19 21 22 24 29 24 22 24 20 18 14 13 18 20 26 17 16 17 18 17 17 15 11 16 11 6 10 6 10 11 12 14 15 17 21 23 21
31 38 25 15 15 12 6 8 10 8 8 11 17 21 21 21 24 24 20 20 22 19 13 15 17 22 23 16 16 16 16 17 17 16 12 20 11 5 4 3 7 12 16 4 12 13 17 18 18
24 37 30 18 15 20 16 6 8 9 10 11 13 19 22 22 20 20 17 17 20 16 12 10 9 13 15 15 19 15 14 18 17 12 7 8 9 5 6 5 6 8 9 11 5 10 14 16 17
32 29 27 21 18 15 19 10 5 7 9 10 12 16 20 20 18 21 18 18 9 15 12 11 10 8 11 15 20 16 13 12 13 13 11 9 7 7 8 3 4 4 2 3 4 11 9 13 15
23 26 26 26 18 17 10 11 3 7 8 10 11 12 19 20 18 18 21 20 17 11 14 13 11 7 13 15 20 21 17 16 13 12 15 14 12 13 11 9 8 6 4 2 4 4 3 7 12
28 30 31 32 18 18 17 11 7 3 8 10 12 11 13 16 17 19 20 18 17 14 14 13 12 10 13 14 14 18 23 21 17 14 16 13 12 14 7 10 11 10 7 4 3 3 2 6 13
29 33 31 30 28 27 19 18 7 5 3 8 11 13 14 14 15 16 18 19 18 17 15 14 10 10 13 14 12 15 21 22 21 17 15 13 11 15 13 11 11 12 11 8 6 7 8 10 8
23 27 27 29 27 25 13 10 10 12 7 3 7 10 12 13 14 15 16 18 19 19 18 16 14 14 15 15 13 11 15 23 24 23 21 19 15 17 17 15 16 14 14 16 14 14 14 11 11
19 19 22 27 25 24 18 18 15 12 13 8 4 4 8 10 12 14 16 18 19 19 20 20 19 19 20 21 20 19 17 18 24 25 25 23 20 18 18 17 15 15 16 17 17 17 15 14 15
13 14 21 23 25 22 20 18 18 15 12 13 10 7 5 2 4 8 11 12 15 18 19 20 21 22 23 22 23 23 23 21 23 28 27 27 27 25 24 22 20 19 20 20 19 21 20 21 22
11 14 15 17 21 21 22 16 20 16 11 12 10 9 7 5 5 6 4 8 11 12 10 12 14 16 17 20 24 25 25 25 25 26 28 29 30 31 31 31 29 29 26 26 23 20 23 25 24
9 11 11 11 13 16 15 18 17 13 13 7 3 2 6 5 4 5 5 9 10 11 10 6 10 13 16 18 20 21 23 25 27 27 29 30 30 32 33 32 31 31 31 30 30 27 24 24 23
12 10 10 11 10 12 16 17 14 13 12 11 11 11 10 11 11 11 11 11 11 12 15 17 16 11 10 10 13 19 24 24 24 25 27 31 33 33 31 31 31 31 32 33 34 33 33 32 30
15 14 11 11 12 11 11 11 12 15 14 11 10 8 8 8 6 6 8 11 14 17 21 20 18 16 15 14 9 9 11 19 24 25 26 26 27 29 32 33 34 34 34 34 37 37 36 34 34
21 17 16 13 15 16 13 13 13 14 15 12 9 10 10 10 10 7 6 6 9 14 15 15 18 17 15 16 15 10 12 13 13 16 17 17 19 20 22 26 28 31 36 38 37 36 36 36 34
26 23 21 19 18 18 18 16 15 13 16 17 16 15 15 14 14 12 10 9 8 6 6 5 7 10 15 17 19 20 20 21 21 19 20 22 21 22 23 23 23 24 23 23 25 28 33 34 36
30 32 28 25 23 21 22 20 15 19 16 18 18 18 16 16 16 16 15 14 12 12 12 12 11 11 7 11 15 21 28 29 30 27 29 26 27 29 28 28 26 24 24 24 25 24 23 22 26
36 34 33 32 29 28 28 28 17 23 18 19 20 20 18 18 16 14 15 17 19 18 17 15 15 14 14 15 14 16 17 21 26 30 33 36 37 32 29 31 34 30 28 28 28 30 30 29 31
42 36 39 38 35 35 33 36 27 22 27 24 22 22 22 22 22 22 18 17 16 18 19 20 20 19 18 18 19 19 19 19 22 26 27 31 38 40 37 35 35 35 38 36 35 34 35 38 45
Wind_Direction
285 292 287 330 250 255 266 259 267 276 272 273 276 267 258 246 246 255 265 237 224 221 234 240 237 246 236 222 218 233 302 306 124 93 93 78 64 56 54 63 60 48 51 60 60 57 44 48 42
287 286 279 217 243 252 262 273 274 262 260 263 260 254 253 247 244 233 237 232 218 202 203 200 206 210 179 189 139 267 178 147 123 114 91 67 60 58 51 65 68 64 67 70 61 55 51 50 46
316 274 134 201 276 280 272 263 272 273 276 258 251 252 250 244 231 223 230 233 213 194 189 181 165 139 130 183 185 142 150 155 140 133 107 82 70 60 64 79 77 71 74 68 66 62 59 55 54
41 136 166 255 256 261 265 257 262 265 268 257 248 250 253 246 239 235 244 232 209 186 180 169 154 142 189 163 152 154 156 152 135 136 133 101 73 68 63 72 80 74 74 71 63 59 66 62 61
50 151 321 294 280 285 276 265 257 263 267 280 244 267 248 238 240 236 236 216 196 189 181 167 163 171 154 168 153 156 162 152 138 142 122 114 78 60 69 72 74 63 75 68 69 64 60 55 59
101 275 247 269 268 273 290 299 254 244 255 226 257 256 248 279 233 208 197 186 176 174 172 165 164 157 164 156 149 152 157 145 141 136 130 105 87 79 74 66 79 78 82 72 65 68 58 62 53
182 246 266 271 265 263 283 295 246 169 208 242 300 75 53 114 127 134 139 142 153 157 162 168 168 154 147 142 149 148 153 148 150 146 113 104 89 82 84 82 74 77 80 79 78 78 72 60 53
212 334 318 274 269 253 284 284 129 146 170 91 115 82 112 126 116 112 121 123 135 139 141 150 154 150 142 146 151 157 170 153 148 151 129 107 90 89 95 82 65 62 80 79 76 79 77 69 53
330 312 285 260 233 266 300 179 121 173 157 122 111 123 122 120 116 109 97 102 118 117 125 119 138 139 136 130 155 161 155 143 149 152 141 110 92 97 99 86 73 60 62 61 67 64 53 42 60
39 30 3 123 95 46 92 132 138 170 128 128 120 122 118 121 119 103 111 136 130 123 134 153 150 145 143 144 152 161 155 158 155 165 164 132 125 108 107 103 75 73 58 61 52 59 70 60 67
46 40 52 42 33 36 95 116 126 132 127 121 121 124 120 130 126 124 131 140 141 144 147 150 160 148 148 173 150 165 161 163 154 159 149 164 166 83 74 137 101 61 71 54 51 52 56 50 55
45 36 29 41 30 34 101 116 122 126 130 114 125 134 131 133 145 141 144 151 143 161 160 142 164 168 179 152 153 159 165 167 171 173 154 183 178 92 124 86 77 69 78 54 60 51 47 43 48
34 28 22 30 43 39 46 106 122 122 142 116 128 144 139 130 144 145 147 161 166 159 128 106 155 175 165 155 169 180 176 173 181 186 175 170 181 147 138 94 81 94 90 355 78 67 51 50 52
25 10 9 42 66 59 51 51 110 122 147 126 133 148 150 137 147 151 154 147 162 166 148 137 130 160 176 179 177 173 172 184 190 199 193 177 190 217 179 152 123 110 107 94 105 71 39 35 38
37 23 23 47 55 51 18 38 95 125 141 141 134 151 155 153 152 164 165 159 174 205 183 151 155 179 188 188 189 189 176 169 190 207 212 201 221 238 187 189 188 152 172 179 303 4 21 358 19
40 36 31 53 64 54 3 18 49 125 147 165 148 149 156 162 161 172 176 177 185 205 214 212 196 211 209 201 208 209 210 201 200 209 211 202 219 228 245 235 218 213 241 274 141 123 91 313 326
43 41 37 51 47 63 41 21 43 87 149 165 175 166 159 163 171 179 185 190 202 199 207 218 237 230 210 212 221 218 220 226 230 222 213 225 226 218 217 241 235 231 239 260 261 297 288 276 295
35 34 34 44 55 71 287 323 58 75 116 169 178 187 184 180 180 183 191 199 203 210 226 245 247 248 245 247 237 237 230 226 225 225 227 235 232 211 229 235 250 257 249 227 268 268 285 315 309
38 38 34 42 47 61 135 38 60 84 93 134 181 183 202 210 210 208 206 210 216 220 225 230 228 229 237 244 246 257 246 236 236 237 240 241 230 222 235 249 259 255 257 274 280 293 296 302 298
29 37 35 37 40 53 41 59 53 64 93 97 96 168 194 200 215 226 230 230 231 232 236 239 242 242 244 244 245 252 250 242 237 241 240 242 240 239 241 244 249 254 259 262 275 279 273 281 289
17 26 37 37 34 33 52 50 64 53 68 90 87 85 103 161 233 239 234 232 233 237 241 243 245 247 251 253 251 254 250 248 243 237 240 242 241 243 247 260 260 269 271 268 279 277 276 281 287
354 11 33 34 36 20 27 39 57 52 54 77 91 94 97 67 44 26 273 250 245 246 247 253 257 259 255 255 257 256 253 249 246 244 244 246 250 253 255 258 262 269 270 266 274 272 270 274 283
327 354 11 25 27 27 13 26 47 43 42 31 6 328 299 288 307 309 331 218 214 218 228 268 262 275 269 264 261 263 266 261 258 254 251 251 253 258 260 262 259 264 265 263 265 273 273 279 277
297 319 337 350 358 7 11 22 27 29 45 25 12 351 330 309 279 268 274 241 225 225 257 280 292 287 277 266 273 262 259 259 256 255 257 256 256 258 260 264 263 261 266 265 266 267 270 270 268
276 292 308 317 330 333 344 6 4 19 25 26 15 358 356 356 353 294 280 270 267 261 264 272 277 293 274 268 264 275 276 260 256 257 259 263 266 266 265 267 267 269 270 270 266 268 271 269 269
260 271 285 295 300 311 321 331 346 352 356 5 13 11 6 8 4 1 346 290 264 257 261 266 273 277 284 265 254 261 280 283 279 264 260 264 270 261 267 265 264 264 268 267 269 272 273 274 274
257 263 268 274 281 293 298 310 316 326 330 341 350 357 1 3 360 357 354 355 359 10 359 329 305 275 272 275 264 259 262 265 269 264 261 266 273 266 268 269 264 269 273 274 273 271 273 275 275
254 257 264 265 271 277 283 288 295 302 309 319 332 339 350 352 353 351 350 351 351 351 352 350 348 347 299 275 271 269 270 272 267 268 263 264 272 268 268 270 264 266 272 271 269 271 280 279 281
248 253 258 263 268 270 273 277 287 292 296 302 312 321 331 338 340 342 344 341 344 346 345 344 340 336 329 321 308 288 282 279 274 272 270 267 268 268 269 270 270 264 262 268 275 283 291 280 284
248 247 257 260 262 266 270 276 283 276 292 291 294 305 317 324 330 331 333 332 334 334 334 334 333 327 319 314 308 302 299 295 289 282 279 272 266 264 266 266 270 270 273 271 279 282 293 292 288
Height
10988 10988 10989 10995 10991 10983 10980 10981 10978 10977 10976 10975 10976 10974 10975 10977 10979 10980 10980 10983 10985 10988 10990 10991 10992 10993 10996 10999 11003 11006 11007 11007 11009 11009 11008 11009 11008 11006 11004 11002 11000 10999 10997 10994 10991 10988 10985 10983 10979
10987 10987 10988 10989 10985 10983 10979 10978 10979 10975 10973 10973 10972 10971 10972 10973 10974 10976 10979 10980 10981 10983 10988 10988 10990 10993 10996 11000 11003 11004 11006 11009 11010 11010 11011 11011 11010 11008 11007 11004 11004 11002 11000 10998 10995 10993 10990 10987 10983
10985 10983 10987 10981 10976 10977 10977 10975 10973 10972 10971 10970 10969 10969 10969 10970 10972 10974 10974 10976 10979 10982 10985 10987 10990 10994 10998 11001 11003 11004 11007 11009 11011 11012 11013 11013 11012 11010 11008 11007 11006 11005 11004 11000 10998 10996 10993 10990 10987
10979 10977 10979 10977 10980 10976 10975 10973 10972 10970 10969 10968 10967 10967 10967 10967 10968 10970 10969 10973 10977 10981 10984 10988 10991 10994 10998 11001 11003 11005 11008 11010 11012 11014 11015 11015 11015 11013 11011 11010 11009 11007 11006 11004 11000 10999 10995 10992 10989
10978 10984 10976 10974 10978 10975 10973 10971 10969 10968 10967 10965 10965 10965 10964 10963 10964 10966 10966 10970 10974 10979 10984 10988 10992 10995 10998 11001 11003 11006 11009 11011 11013 11016 11017 11016 11017 11015 11013 11012 11010 11008 11006 11006 11004 11002 11000 10997 10994
10989 10984 10975 10976 10977 10974 10973 10970 10967 10967 10965 10964 10964 10963 10962 10961 10961 10963 10964 10969 10973 10977 10983 10988 10992 10995 10998 11000 11003 11006 11010 11012 11014 11018 11018 11019 11019 11018 11015 11012 11010 11009 11008 11008 11008 11006 11005 11003 11001
10998 10987 10978 10977 10977 10974 10972 10970 10966 10965 10965 10964 10964 10963 10962 10962 10962 10963 10965 10970 10974 10978 10984 10989 10993 10996 10998 11001 11004 11007 11010 11012 11015 11018 11020 11021 11021 11020 11018 11016 11014 11012 11012 11012 11009 11007 11006 11005 11003
10981 10978 10973 10976 10976 10973 10971 10969 10966 10966 10966 10965 10965 10965 10965 10964 10964 10967 10970 10974 10977 10982 10987 10991 10995 10997 10999 11003 11006 11008 11010 11013 11015 11019 11021 11022 11022 11022 11020 11018 11017 11016 11016 11014 11014 11011 11007 11005 11005
10979 10980 10981 10980 10977 10973 10972 10970 10968 10968 10968 10967 10967 10967 10967 10967 10969 10974 10976 10979 10983 10986 10989 10993 10996 10998 11001 11004 11007 11009 11012 11014 11017 11020 11021 11022 11025 11024 11022 11020 11020 11021 11020 11018 11018 11015 11014 11010 11008
10983 10986 10985 10982 10977 10974 10973 10971 10970 10970 10970 10969 10970 10970 10970 10970 10974 10978 10982 10983 10986 10990 10993 10996 10998 11000 11002 11004 11008 11009 11012 11015 11017 11020 11022 11025 11025 11026 11024 11022 11022 11023 11024 11022 11021 11017 11016 11016 11012
10986 10985 10983 10981 10979 10977 10974 10972 10972 10973 10972 10973 10971 10973 10974 10976 10979 10981 10984 10987 10990 10992 10996 10998 11001 11003 11004 11007 11008 11011 11014 11016 11017 11020 11024 11025 11026 11026 11025 11023 11024 11026 11028 11027 11025 11023 11021 11019 11015
10989 10988 10984 10980 10979 10978 10975 10973 10975 10975 10975 10976 10974 10976 10979 10981 10983 10986 10988 10991 10994 10997 10999 11000 11003 11006 11008 11009 11011 11014 11015 11017 11018 11020 11023 11025 11027 11027 11027 11026 11026 11028 11029 11029 11026 11023 11021 11021 11020
10997 10993 10989 10987 10984 10983 10981 10977 10976 10978 10978 10978 10978 10979 10981 10983 10986 10989 10992 10995 10998 11000 11002 11003 11006 11008 11009 11011 11014 11016 11017 11018 11019 11021 11023 11024 11026 11028 11027 11027 11028 11029 11028 11022 11026 11024 11022 11021 11021
10995 10991 10991 10987 10984 10984 10983 10984 10981 10980 10981 10981 10982 10983 10984 10984 10988 10990 10994 10997 11001 11003 11005 11007 11009 11011 11012 11014 11014 11015 11017 11019 11020 11021 11023 11025 11026 11027 11028 11030 11031 11030 11028 11025 11024 11022 11022 11022 11021
10994 10995 10995 10990 10987 10983 10985 10985 10986 10983 10984 10984 10985 10986 10987 10988 10990 10993 10995 10999 11002 11004 11007 11009 11010 11011 11013 11014 11015 11016 11018 11020 11021 11022 11022 11024 11026 11027 11028 11030 11031 11031 11029 11027 11025 11028 11024 11023 11024
11009 11001 10999 10995 10988 10985 10986 10989 10989 10986 10986 10987 10988 10989 10989 10991 10992 10995 10998 11000 11003 11005 11007 11009 11010 11011 11012 11013 11014 11016 11018 11019 11020 11021 11022 11024 11025 11026 11028 11030 11032 11032 11031 11030 11028 11026 11026 11025 11024
11009 11004 10999 11000 10994 10993 10995 10994 10991 10989 10988 10989 10991 10992 10993 10993 10995 10996 10999 11002 11004 11006 11007 11009 11010 11011 11011 11012 11014 11015 11016 11018 11019 11020 11022 11023 11024 11026 11027 11028 11030 11032 11033 11032 11030 11027 11028 11029 11027
11008 11005 11005 11004 11002 10993 11004 11000 10993 10990 10990 10992 10992 10993 10994 10995 10997 10998 11000 11002 11004 11005 11007 11008 11009 11010 11011 11012 11013 11014 11016 11017 11018 11020 11021 11022 11023 11025 11026 11027 11029 11030 11032 11033 11031 11029 11028 11030 11029
11014 11012 11012 11007 11005 11004 11005 11002 10995 10991 10991 10994 10994 10995 10996 10998 10999 11000 11001 11002 11003 11004 11005 11006 11007 11008 11009 11010 11012 11013 11014 11016 11018 11019 11020 11021 11022 11023 11023 11024 11026 11027 11028 11031 11030 11030 11029 11028 11027
11018 11018 11014 11010 11010 11007 11006 11000 10997 10996 10993 10994 10996 10997 10997 10998 10999 11000 11001 11002 11003 11005 11006 11006 11007 11007 11008 11008 11009 11010 11011 11011 11012 11014 11016 11018 11020 11021 11020 11020 11021 11022 11023 11025 11026 11026 11025 11026 11024
11021 11020 11015 11014 11011 11011 11008 11005 11000 11000 10997 10995 10997 10998 10999 10999 11000 11000 11000 11000 11001 11002 11003 11004 11004 11005 11005 11006 11006 11007 11007 11007 11007 11009 11010 11013 11015 11018 11018 11017 11018 11018 11019 11019 11020 11020 11022 11022 11021
11021 11019 11017 11015 11014 11012 11008 11008 11003 11002 11002 11000 11000 11001 11001 11000 10999 10999 10999 10999 11000 11000 11001 11001 11001 11001 11001 11002 11002 11003 11003 11003 11003 11005 11007 11009 11010 11011 11013 11014 11014 11014 11015 11015 11015 11014 11015 11016 11016
11021 11019 11019 11018 11015 11014 11016 11007 11004 11005 11003 11002 11002 11002 11001 11000 11000 10999 10999 10998 10999 10999 10999 10999 10999 10999 10998 10997 10997 10997 10998 10999 11001 11002 11003 11003 11005 11006 11007 11007 11008 11009 11009 11010 11010 11010 11010 11011 11011
11018 11018 11018 11016 11015 11014 11011 11010 11010 11007 11003 11003 11002 11001 11000 10999 10999 10999 10998 10998 10998 10998 10998 10998 10997 10997 10996 10995 10994 10993 10993 10993 10995 10996 10997 10998 10999 11000 11001 11002 11002 11003 11003 11002 11002 11004 11003 11001 11004
11016 11015 11015 11015 11014 11013 11013 11013 11012 11008 11005 11005 11005 11004 11003 11001 10999 10997 10996 10996 10996 10995 10995 10994 10993 10993 10992 10992 10991 10991 10990 10990 10991 10992 10993 10993 10994 10995 10996 10996 10996 10996 10996 10995 10995 10995 10995 10995 10997
11012 11012 11013 11013 11011 11012 11013 11011 11010 11008 11008 11007 11006 11005 11003 11001 11000 10998 10997 10995 10994 10993 10993 10991 10990 10990 10989 10989 10989 10988 10988 10988 10988 10988 10988 10988 10989 10988 10987 10987 10988 10988 10987 10988 10988 10988 10988 10989 10989
11008 11008 11009 11009 11009 11009 11008 11008 11009 11008 11006 11005 11004 11002 11001 10999 10998 10997 10996 10995 10993 10991 10990 10988 10987 10986 10986 10985 10985 10985 10985 10985 10984 10984 10984 10984 10983 10984 10984 10983 10982 10980 10980 10980 10980 10981 10982 10982 10983
11002 11001 11003 11004 11005 11005 11005 11005 11006 11005 11005 11003 11002 11001 11000 10999 10998 10996 10994 10993 10991 10990 10988 10987 10985 10985 10984 10982 10981 10981 10981 10980 10980 10980 10978 10977 10977 10977 10977 10977 10976 10976 10975 10975 10975 10975 10977 10976 10977
10993 10995 10996 10997 10999 10999 10999 10999 11003 10999 11001 11000 10999 10999 10998 10997 10996 10995 10993 10990 10987 10986 10985 10984 10983 10981 10980 10979 10978 10977 10976 10974 10973 10972 10971 10971 10970 10970 10969 10969 10970 10970 10969 10969 10971 10971 10972 10972 10971
10983 10988 10989 10990 10991 10992 10993 10989 10996 10996 10993 10995 10996 10996 10995 10994 10992 10991 10991 10989 10987 10985 10982 10981 10979 10978 10977 10975 10973 10971 10969 10967 10965 10964 10963 10961 10960 10960 10960 10960 10960 10960 10961 10962 10964 10967 10969 10967 10966